Wind_Speed
27 27 27 27 28 28 28 28 28 28 28 28 28 29 29 29 30 30 30 30 31 31 32 33 33 34 34 35 36 36 37 38 38 38 39 40 41 41 42 43 44 44 45
29 28 29 29 29 29 29 29 29 29 29 29 30 30 30 30 31 31 32 32 32 33 33 34 35 35 36 37 37 38 39 40 41 41 41 41 41 42 43 44 45 46 46
30 30 30 30 30 30 30 30 30 30 30 31 31 31 32 32 32 32 33 33 34 34 35 35 36 37 38 39 39 40 41 42 42 43 43 43 43 42 42 44 45 46 47
31 31 30 31 30 30 31 31 31 31 31 32 32 33 33 33 33 34 34 35 35 35 36 36 37 39 40 40 41 42 43 43 44 44 45 46 47 47 45 45 46 47 48
31 31 31 31 31 31 31 31 32 32 32 33 33 33 34 34 35 35 36 36 36 37 37 38 39 40 41 42 43 44 45 45 46 46 47 48 49 50 50 49 48 49 50
31 31 31 31 31 31 31 32 32 32 33 33 34 34 35 35 36 36 37 37 37 38 39 39 40 41 43 44 45 46 46 47 48 49 50 50 51 52 53 53 53 53 53
31 31 31 31 31 31 32 32 33 33 34 34 34 35 36 36 37 37 38 38 39 39 40 41 42 44 45 46 47 47 48 49 50 50 51 53 54 55 56 57 58 58 57
31 31 32 32 32 32 33 33 34 34 35 35 36 36 37 37 38 38 39 40 40 41 42 43 44 46 47 48 49 49 49 50 51 53 54 55 56 57 59 61 62 61 60
31 32 32 32 32 33 33 34 35 35 36 36 37 37 38 39 39 40 40 41 41 43 44 45 46 47 49 50 50 51 51 52 54 55 55 57 58 60 62 63 63 64 63
32 32 33 33 33 34 35 35 36 36 37 37 38 38 39 39 40 41 41 42 43 44 46 47 48 49 50 51 51 52 53 55 56 57 58 60 61 62 63 63 64 65 65
33 33 34 34 34 35 36 36 37 37 37 38 38 39 39 40 40 41 42 44 45 46 47 48 49 50 51 52 53 54 56 57 58 60 61 62 63 63 64 64 65 66 68
35 35 35 35 35 36 37 37 37 37 38 39 39 39 40 40 41 42 43 44 46 47 48 49 50 52 53 54 55 57 58 59 60 61 62 63 64 64 65 66 67 68 70
35 35 36 36 36 36 37 37 37 38 39 39 39 40 40 41 42 43 44 45 47 48 49 50 52 53 54 56 57 59 60 61 62 63 64 65 66 66 67 68 69 70 71
37 36 37 37 37 37 37 37 38 39 39 39 40 40 41 42 43 44 45 46 47 49 50 52 53 55 56 58 59 60 61 62 63 64 66 67 67 68 69 70 71 72 72
37 37 37 37 38 37 38 38 39 39 39 40 41 41 42 43 44 45 46 47 48 50 51 53 54 56 58 60 61 62 63 64 65 66 67 68 69 70 71 72 72 73 73
38 38 38 38 38 38 39 39 40 40 41 41 42 43 43 44 45 46 47 48 50 51 52 54 55 57 59 61 62 64 65 66 66 67 68 69 70 71 72 73 74 74 74
39 38 38 38 39 39 39 40 41 42 42 43 43 43 44 45 46 47 48 50 51 52 53 55 57 59 61 62 64 65 66 66 67 69 70 71 72 73 74 75 74 73 73
39 39 39 39 40 40 41 41 41 42 43 43 44 45 45 46 47 48 49 51 52 53 55 57 59 61 62 63 65 66 67 68 69 71 73 74 74 75 76 76 74 72 71
39 40 40 40 41 41 41 41 42 43 44 44 45 45 46 47 48 49 51 52 54 55 57 59 61 62 63 64 66 67 68 69 71 73 74 75 76 76 77 76 73 70 68
39 40 41 41 41 41 41 42 43 44 44 45 46 46 48 49 49 50 52 53 55 56 58 60 61 62 63 65 67 68 70 72 73 73 74 75 76 75 74 72 70 68 67
40 40 41 41 41 41 42 43 43 44 45 46 47 48 49 49 50 52 53 55 56 58 60 61 61 63 64 66 68 70 72 73 73 74 74 74 74 73 71 69 68 67 66
40 41 41 42 42 43 43 44 44 45 46 46 47 48 49 50 52 53 55 56 58 60 61 62 62 63 65 67 69 71 72 73 74 74 74 73 71 69 67 66 65 64 63
41 41 42 43 43 44 45 45 46 46 47 48 48 49 50 51 53 55 56 58 60 61 62 63 63 64 65 67 69 71 72 73 74 74 72 70 68 66 64 63 62 61 58
42 43 43 43 44 45 45 46 47 48 48 49 49 50 51 53 55 56 58 59 60 62 63 64 64 65 66 68 70 71 72 72 73 72 69 66 64 62 61 59 57 55 51
43 44 44 45 45 45 46 47 47 48 49 49 50 51 53 55 56 57 59 60 61 63 64 65 66 67 68 69 70 71 71 71 71 69 65 62 60 58 57 54 52 49 47
43 44 45 45 46 46 47 47 48 49 49 50 52 53 55 56 57 59 60 61 63 64 65 67 68 69 69 69 69 70 70 70 68 65 61 59 57 55 53 50 48 46 44
Wind_Direction
289 290 289 288 289 290 290 290 289 290 291 291 291 291 292 293 294 294 295 296 296 296 296 297 297 298 298 299 299 298 298 298 298 297 296 296 296 295 295 294 294 293 293
289 290 290 289 289 289 289 289 289 288 289 289 290 291 291 292 293 293 293 294 295 296 296 297 298 298 298 299 299 299 299 298 298 297 296 295 294 294 295 294 294 294 293
289 290 290 289 289 289 288 288 288 288 288 288 289 290 290 292 292 293 293 294 295 296 297 297 297 298 298 299 299 299 299 299 299 298 297 296 294 293 294 294 294 294 293
290 291 291 290 290 289 288 288 288 288 287 288 288 289 290 291 292 293 293 294 295 296 296 297 297 298 298 299 299 299 299 299 299 299 298 298 297 296 294 294 294 293 293
291 292 292 291 290 289 288 288 288 288 287 288 288 289 289 290 291 292 293 294 294 295 296 297 297 298 299 299 300 300 300 300 300 300 299 299 298 298 297 296 295 295 294
291 292 292 291 291 290 289 288 288 288 288 288 288 289 289 290 291 292 292 293 294 295 296 296 297 298 299 299 300 301 301 301 301 301 300 300 299 298 298 297 297 296 295
291 292 292 292 291 290 289 288 288 288 288 288 288 288 289 290 290 291 292 293 293 294 295 296 297 298 298 299 300 300 300 301 301 301 301 301 300 299 299 298 297 296 295
292 292 293 292 291 290 289 288 288 288 288 288 288 289 289 290 290 291 292 293 294 294 295 296 297 298 298 299 300 300 300 301 301 302 302 301 301 300 300 299 298 297 296
292 293 294 293 292 290 289 289 289 288 289 289 289 289 289 290 291 291 292 292 293 294 296 296 297 298 299 299 300 300 301 301 302 302 301 301 301 301 301 300 299 299 298
292 293 293 293 292 291 290 290 290 289 289 289 289 289 290 290 291 291 292 292 293 295 296 297 298 299 299 300 300 300 301 301 302 302 302 302 302 302 301 300 300 300 299
294 294 294 293 291 291 291 291 290 290 290 290 290 290 291 291 291 292 292 293 294 295 296 297 298 299 300 300 300 301 301 302 303 303 302 302 302 302 301 301 301 300 300
294 294 294 293 292 292 291 291 290 290 290 290 290 290 290 291 291 292 293 293 295 295 296 297 298 299 300 300 301 302 302 303 303 303 303 303 303 302 301 301 301 301 301
295 295 294 294 293 292 291 291 291 291 291 291 290 290 290 291 292 292 293 294 295 296 296 297 299 299 300 301 302 303 303 303 304 304 304 303 303 302 302 302 302 302 301
294 294 294 294 294 293 292 292 291 292 292 292 291 291 291 291 292 293 294 295 296 297 297 298 299 300 300 301 302 303 303 303 303 304 304 304 303 303 303 303 303 302 302
294 295 294 294 294 293 292 292 292 293 292 292 292 292 292 292 293 294 294 295 296 297 298 299 299 300 301 302 302 302 302 303 303 304 304 304 304 303 303 304 303 303 303
294 294 294 294 293 292 292 292 292 292 293 293 293 292 293 293 294 295 295 296 297 297 298 299 300 300 301 301 302 302 303 303 303 304 304 304 304 304 304 304 304 304 303
293 294 294 294 293 292 292 292 292 293 293 293 293 293 294 294 295 295 296 297 297 298 299 300 300 301 301 302 302 302 303 304 304 304 305 304 304 304 304 304 304 304 303
293 293 294 294 294 293 293 293 293 294 294 294 294 295 295 295 295 296 297 297 298 299 300 301 301 302 302 302 302 303 303 304 305 305 305 305 304 304 304 304 304 303 303
293 293 293 294 294 294 294 294 294 294 295 295 295 295 295 296 296 297 298 299 300 300 301 302 302 303 302 302 303 303 304 305 305 305 305 305 305 305 304 304 303 303 302
293 293 294 294 294 294 294 294 295 295 295 296 296 296 297 297 298 299 300 300 301 302 302 303 303 303 303 303 304 304 305 305 306 306 306 306 305 305 304 304 304 303 303
292 293 294 294 294 294 294 295 295 296 296 296 297 298 298 299 299 300 301 301 302 303 304 304 304 304 305 305 305 305 306 306 307 307 307 307 306 305 304 304 304 304 304
293 293 294 294 294 294 294 295 295 296 297 297 298 299 299 299 300 301 302 302 303 304 305 305 305 305 306 306 306 307 307 307 308 308 308 307 306 305 305 305 305 304 304
293 293 294 294 294 295 295 295 296 296 297 298 298 299 300 300 301 302 303 304 305 305 305 306 306 306 307 307 308 308 308 308 309 309 309 308 307 306 306 305 305 305 304
293 293 293 294 294 295 296 296 297 298 298 298 299 300 300 301 302 303 304 305 305 306 306 306 307 307 308 308 308 309 309 310 310 310 310 309 308 307 307 306 306 305 304
293 294 294 294 294 295 296 297 298 298 299 299 300 301 302 302 303 304 305 306 306 307 307 308 308 308 309 309 309 310 311 311 311 311 311 310 309 308 308 307 307 306 304
293 294 294 295 295 296 297 298 299 299 299 300 301 302 302 303 304 305 306 306 307 308 308 309 309 309 310 310 311 312 312 312 312 312 311 311 311 310 309 308 307 306 305
Height
5822 5821 5819 5818 5817 5815 5814 5812 5811 5809 5807 5806 5804 5802 5800 5798 5796 5794 5792 5790 5788 5785 5783 5780 5778 5775 5773 5770 5767 5765 5762 5759 5756 5754 5751 5748 5745 5742 5739 5735 5732 5729 5726
5815 5815 5814 5812 5811 5809 5808 5806 5805 5803 5801 5800 5798 5796 5794 5792 5790 5788 5785 5783 5781 5778 5776 5773 5770 5768 5765 5762 5759 5756 5753 5750 5747 5744 5742 5740 5737 5733 5729 5725 5721 5718 5715
5809 5809 5807 5806 5805 5803 5801 5800 5799 5797 5795 5793 5791 5789 5788 5785 5783 5781 5779 5776 5773 5771 5768 5765 5763 5760 5757 5754 5750 5747 5744 5741 5737 5733 5730 5728 5726 5724 5721 5716 5711 5707 5704
5803 5802 5801 5800 5798 5797 5795 5793 5792 5790 5788 5786 5784 5783 5781 5779 5776 5774 5771 5769 5766 5763 5760 5757 5754 5751 5748 5745 5741 5738 5734 5731 5727 5724 5719 5716 5712 5709 5709 5706 5701 5696 5692
5796 5795 5794 5793 5791 5790 5788 5786 5785 5783 5781 5779 5777 5775 5773 5771 5769 5766 5764 5761 5758 5755 5752 5749 5746 5742 5739 5735 5732 5728 5724 5721 5717 5713 5709 5704 5700 5695 5693 5691 5688 5684 5679
5790 5788 5787 5786 5784 5783 5781 5779 5777 5776 5774 5772 5770 5768 5765 5763 5761 5758 5755 5753 5750 5746 5743 5740 5736 5733 5729 5726 5722 5718 5714 5710 5706 5701 5696 5692 5688 5683 5678 5676 5673 5670 5666
5783 5781 5780 5779 5777 5775 5773 5772 5770 5768 5766 5764 5762 5759 5757 5755 5752 5750 5747 5744 5741 5738 5734 5731 5727 5723 5720 5716 5711 5707 5703 5699 5694 5689 5684 5679 5674 5669 5664 5660 5656 5654 5650
5776 5775 5773 5771 5770 5768 5766 5764 5762 5760 5758 5756 5753 5751 5749 5746 5744 5741 5738 5735 5732 5728 5725 5721 5717 5713 5709 5705 5700 5696 5691 5687 5682 5677 5672 5666 5660 5654 5649 5643 5638 5635 5633
5769 5768 5766 5764 5762 5760 5758 5756 5754 5752 5749 5747 5745 5742 5740 5737 5735 5732 5729 5726 5722 5719 5715 5711 5707 5703 5698 5694 5689 5685 5680 5675 5669 5664 5658 5652 5646 5640 5633 5627 5620 5615 5612
5762 5760 5758 5756 5754 5752 5750 5748 5746 5743 5741 5738 5736 5733 5731 5728 5725 5722 5719 5716 5712 5708 5704 5700 5696 5692 5687 5682 5677 5672 5667 5662 5656 5650 5644 5637 5631 5624 5617 5610 5604 5597 5591
5754 5752 5750 5748 5746 5744 5741 5739 5737 5734 5732 5729 5727 5724 5721 5718 5716 5712 5709 5705 5702 5698 5693 5689 5685 5680 5675 5670 5665 5660 5654 5648 5642 5635 5629 5622 5615 5608 5601 5594 5587 5580 5572
5746 5744 5742 5740 5737 5735 5732 5730 5728 5725 5723 5720 5717 5715 5712 5709 5706 5702 5699 5695 5691 5687 5682 5678 5673 5668 5663 5657 5652 5646 5640 5634 5627 5620 5613 5606 5599 5592 5584 5577 5570 5563 5554
5738 5735 5733 5731 5728 5726 5724 5721 5719 5716 5714 5711 5708 5705 5702 5699 5695 5692 5688 5684 5680 5676 5671 5666 5661 5656 5650 5644 5638 5632 5626 5619 5612 5605 5597 5590 5582 5575 5567 5560 5552 5544 5536
5729 5727 5724 5722 5719 5717 5714 5712 5709 5707 5704 5701 5698 5695 5692 5688 5685 5681 5677 5673 5669 5664 5659 5654 5649 5643 5637 5631 5624 5618 5611 5604 5597 5589 5581 5573 5565 5557 5549 5542 5534 5525 5517
5720 5718 5715 5713 5710 5708 5705 5702 5700 5697 5694 5691 5688 5685 5681 5678 5674 5670 5666 5662 5657 5652 5647 5641 5636 5629 5623 5617 5610 5603 5596 5589 5582 5573 5565 5556 5548 5539 5531 5523 5515 5506 5497
5711 5709 5706 5704 5701 5698 5696 5693 5690 5687 5684 5681 5678 5674 5670 5667 5663 5659 5654 5650 5645 5640 5634 5629 5622 5616 5609 5602 5595 5587 5580 5573 5565 5557 5549 5540 5531 5522 5513 5504 5495 5486 5476
5702 5699 5697 5694 5691 5688 5686 5683 5680 5677 5674 5670 5667 5663 5659 5655 5651 5647 5642 5638 5632 5627 5621 5615 5609 5602 5595 5587 5579 5571 5564 5557 5549 5540 5532 5523 5513 5503 5494 5486 5477 5467 5457
5692 5689 5687 5684 5681 5678 5675 5672 5669 5666 5663 5659 5656 5652 5648 5644 5639 5635 5630 5625 5619 5614 5608 5602 5595 5587 5580 5571 5563 5555 5547 5540 5532 5523 5513 5504 5494 5484 5473 5465 5458 5449 5440
5682 5680 5677 5674 5671 5668 5665 5662 5659 5656 5652 5649 5645 5641 5636 5632 5627 5623 5617 5612 5606 5600 5594 5587 5580 5572 5564 5555 5547 5538 5530 5523 5515 5505 5494 5483 5474 5465 5453 5444 5437 5430 5422
5672 5670 5667 5664 5661 5658 5655 5652 5648 5645 5641 5637 5633 5629 5624 5620 5615 5610 5604 5598 5592 5586 5579 5572 5564 5556 5548 5540 5530 5521 5513 5505 5497 5487 5477 5465 5454 5444 5433 5424 5416 5410 5403
5663 5660 5657 5654 5651 5647 5644 5641 5637 5634 5630 5626 5621 5617 5612 5607 5602 5597 5591 5585 5578 5572 5565 5557 5550 5541 5532 5523 5514 5504 5493 5484 5476 5467 5458 5447 5435 5424 5415 5406 5397 5390 5382
5653 5649 5647 5643 5640 5637 5633 5630 5626 5622 5618 5614 5609 5605 5599 5594 5589 5583 5577 5570 5563 5556 5549 5541 5534 5525 5516 5506 5496 5486 5475 5465 5455 5447 5437 5427 5417 5407 5398 5389 5380 5372 5364
5642 5639 5636 5633 5629 5626 5622 5619 5615 5610 5606 5602 5597 5592 5587 5581 5575 5569 5563 5556 5548 5540 5533 5525 5517 5509 5500 5490 5479 5469 5458 5447 5436 5427 5417 5408 5398 5389 5381 5372 5363 5355 5348
5631 5628 5625 5622 5618 5614 5611 5607 5603 5598 5594 5589 5584 5579 5573 5568 5562 5555 5548 5540 5533 5524 5517 5508 5500 5493 5484 5473 5463 5452 5441 5430 5419 5409 5400 5390 5381 5372 5364 5356 5348 5341 5334
5620 5617 5614 5610 5607 5603 5599 5595 5591 5586 5581 5576 5571 5566 5560 5554 5548 5541 5533 5525 5517 5508 5500 5491 5483 5474 5467 5456 5444 5433 5423 5412 5401 5391 5383 5374 5365 5357 5349 5342 5334 5328 5322
5609 5606 5602 5599 5595 5591 5587 5583 5578 5573 5569 5563 5558 5552 5546 5540 5533 5527 5520 5511 5502 5493 5483 5474 5464 5456 5447 5437 5427 5416 5405 5394 5384 5374 5366 5358 5350 5342 5335 5328 5322 5316 5310